sat.trackr.live / text

‹ back to catalog

STARLINK-36258

NORAD 67104 · 2025-299C

PAYLOAD ACTIVE UNKNOWN

§ Identity

Operator
Country
US
Launch date
2025-12-15
Launch site
AFETR
Launch vehicle
Mass (kg)
RCS (m²)

Purposes: comms

External: N2YO · Heavens-Above · Gunter

§ Orbital elements

Epoch: 2026-09-19T22:50:27.801024Z

Period
94.27 min
Inclination
43.0023°
Eccentricity
0.0001438
Mean motion
15.27594915 rev/d
Perigee alt
482.0 km
Apogee alt
484.0 km
Semi-major
6,861.1 km
B*
3.8511e-4
RAAN
152.1130°
Arg perigee
263.5666°
Mean anomaly
96.5022°
Rev number
4,282

§ Raw data

STARLINK-362581 67104U 25299C   26262.95171066  .00010355  00000+0  38511-3 0  99922 67104  43.0023 152.1130 0001438 263.5666  96.5022 15.27594915 42823

JSON: /api/v1/satellites/67104 · /tle

For live sub-satellite position, see the globe view (requires WebGL).

§ Visibility from observer

Set your observer location to see the next 7 days of passes ≥ 10°. The values pass through the URL so the page stays shareable.

No JS? Fill the form by hand. The geolocation button needs JavaScript.